Hourly Data Report for September 21, 2010

IQALUIT CLIMATE
NUNAVUT

63°44'50.000" N
68°32'40.000" W
33.50 m
2402592
71321
XFB

Download Data

Hourly Data (September 2010)
Hourly Data Report for September 21, 2010
TIME
LST
Temp Definition
°C
Dew Point Definition
°C
Rel Hum Definition
%
Precip. Amount Definition
mm

Wind Dir Definition
10's deg

Wind Spd Definition
km/h
Visibility Definition
km
Stn Press Definition
kPa
Hmdx Definition


Wind Chill Definition


Weather Definition


00:00 2.5 LegendMM LegendMM   32 13   100.03     LegendNANA
01:00 3.0 3.0 100   31 7   100.05     LegendNANA
02:00 3.8 3.8 100   31 7   100.08     LegendNANA
03:00 4.8 4.8 100     0   100.08     LegendNANA
04:00 3.4 3.4 100   8 2   100.11     LegendNANA
05:00 3.5 3.5 100   15 6   100.17     LegendNANA
06:00 3.8 3.8 100   2 2   100.20     LegendNANA
07:00 3.8 3.8 100   14 6   100.21     LegendNANA
08:00 4.6 4.5 99   8 2   100.24     LegendNANA
09:00 5.6 5.0 96     0   100.26     LegendNANA
10:00 6.5 5.0 90   29 2   100.25     LegendNANA
11:00 6.7 4.7 87   24 6   100.23     LegendNANA
12:00 6.4 5.1 91   18 6   100.25     LegendNANA
13:00 8.1 4.8 80   26 7   100.25     LegendNANA
14:00 7.5 4.7 82   25 4   100.26     LegendNANA
15:00 7.2 4.2 81   22 4   100.27     LegendNANA
16:00 5.9 5.3 96   15 6   100.29     LegendNANA
17:00 5.4 4.5 94     0   100.27     LegendNANA
18:00 4.1 3.8 98   1 4   100.26     LegendNANA
19:00 4.7 4.3 97   31 4   100.24     LegendNANA
20:00 4.2 4.0 99   16 4   100.23     LegendNANA
21:00 4.6 2.4 86   5 15   100.24     LegendNANA
22:00 4.6 2.1 84   5 17   100.19     LegendNANA
23:00 4.7 2.1 83   6 19   100.19     LegendNANA

Notes on Data Quality.

Legend

  • E = Estimated
  • M = Missing
  • NA = Not Available*
  • [empty] = Indicates an unobserved value
Date modified: